IU7LMH-13 Weather Reports


time (UTC)temp
C
wind
direction
speed
KPH
gust
KPH
rain 1hr
cm
rain 24hr
cm
rain mn
cm
humidity
%
barometer
mb
20260507213737 16 68 1.6 3.2 0.00 0.10 0.10 86 1013.3
20260507213543 16 68 3.2 3.2 0.00 0.10 0.10 86 1013.2
20260507213338 16 68 3.2 3.2 0.00 0.13 0.10 86 1013.1
20260507212938 16 112 3.2 3.2 0.00 0.13 0.10 85 1013.4
20260507212737 16 68 3.2 3.2 0.00 0.13 0.10 85 1013.2
20260507212545 16 68 3.2 3.2 0.00 0.13 0.10 86 1013.3
20260507212338 16 90 3.2 6.4 0.00 0.13 0.10 85 1013.3
20260507212139 16 68 1.6 3.2 0.00 0.13 0.10 85 1013.4
20260507211937 16 68 0.0 3.2 0.00 0.13 0.10 85 1013.3
20260507211737 16 68 3.2 3.2 0.00 0.13 0.10 85 1013.5
20260507211544 16 45 3.2 3.2 0.00 0.13 0.10 85 1013.3
20260507211339 16 68 0.0 3.2 0.00 0.13 0.10 85 1013.4
20260507211139 16 45 0.0 3.2 0.00 0.13 0.10 85 1013.4
20260507210737 15 45 1.6 3.2 0.00 0.13 0.10 85 1013.3
20260507210542 15 22 0.0 3.2 0.00 0.13 0.10 85 1013.4
20260507210138 15 22 1.6 3.2 0.00 0.13 0.10 85 1013.5
20260507205937 16 0 0.0 0.0 0.00 0.13 0.10 84 1013.5
20260507205737 16 0 0.0 0.0 0.00 0.13 0.10 84 1013.5
20260507205544 16 22 0.0 0.0 0.00 0.13 0.10 84 1013.6
20260507205338 16 22 0.0 3.2 0.00 0.13 0.10 84 1013.4
20260507205138 16 22 0.0 0.0 0.00 0.13 0.10 84 1013.4
20260507204937 16 22 0.0 3.2 0.00 0.13 0.10 84 1013.6
20260507204737 16 22 0.0 3.2 0.00 0.13 0.10 84 1013.5
20260507204338 16 22 0.0 0.0 0.00 0.13 0.10 83 1013.6
20260507204140 16 0 1.6 3.2 0.00 0.13 0.10 83 1013.5
20260507203939 16 22 3.2 3.2 0.00 0.13 0.10 83 1013.6
20260507203737 16 22 1.6 3.2 0.00 0.13 0.10 83 1013.6
20260507203337 16 22 3.2 3.2 0.00 0.13 0.10 83 1013.7
20260507202938 16 22 1.6 3.2 0.00 0.13 0.10 82 1013.7
20260507202738 16 0 1.6 3.2 0.00 0.13 0.10 82 1013.6
20260507202545 16 45 1.6 3.2 0.00 0.13 0.10 82 1013.7
20260507202339 16 22 1.6 3.2 0.00 0.13 0.10 82 1013.6
20260507202139 16 45 3.2 6.4 0.00 0.13 0.10 82 1013.7
20260507201936 16 68 3.2 6.4 0.00 0.13 0.10 81 1013.6
20260507201739 16 22 3.2 3.2 0.00 0.13 0.10 81 1013.7
20260507201544 16 68 3.2 3.2 0.00 0.13 0.10 81 1013.7
20260507201139 16 68 3.2 3.2 0.00 0.13 0.10 81 1013.7
20260507200939 16 68 3.2 3.2 0.00 0.13 0.10 81 1013.9
20260507200738 16 90 3.2 6.4 0.00 0.13 0.10 81 1013.6
20260507200541 16 68 1.6 3.2 0.00 0.13 0.10 81 1013.7
20260507200138 16 90 3.2 6.4 0.00 0.13 0.10 80 1013.9
20260507195544 16 90 3.2 3.2 0.00 0.13 0.10 79 1014.0
20260507195338 16 68 3.2 6.4 0.00 0.13 0.10 79 1013.9
20260507195139 16 45 3.2 3.2 0.00 0.13 0.10 78 1014.0
20260507194937 16 68 4.8 6.4 0.00 0.13 0.10 78 1013.8
20260507194544 16 90 4.8 6.4 0.00 0.13 0.10 78 1013.9
20260507194338 16 90 4.8 6.4 0.00 0.13 0.10 78 1014.0
20260507194138 16 112 3.2 6.4 0.00 0.13 0.10 78 1014.1
20260507193940 16 68 4.8 9.7 0.00 0.13 0.10 78 1013.8
20260507193738 16 112 4.8 6.4 0.00 0.13 0.10 78 1013.9
20260507193338 16 90 3.2 3.2 0.00 0.13 0.10 78 1013.9
20260507193139 16 112 3.2 3.2 0.00 0.13 0.10 79 1013.9
20260507192938 16 90 3.2 6.4 0.00 0.13 0.10 79 1014.0
20260507192543 16 90 3.2 3.2 0.00 0.13 0.10 80 1013.7
20260507192139 16 90 3.2 3.2 0.00 0.13 0.10 80 1013.6
20260507191738 16 68 1.6 3.2 0.00 0.13 0.10 80 1013.7
20260507191339 16 90 1.6 3.2 0.00 0.13 0.10 80 1013.8
20260507191139 16 45 3.2 6.4 0.00 0.13 0.10 80 1013.9
20260507190939 16 68 1.6 3.2 0.00 0.13 0.10 80 1013.8
20260507190737 16 90 3.2 3.2 0.00 0.13 0.10 80 1013.8
20260507190337 16 90 3.2 6.4 0.00 0.13 0.10 80 1013.7
20260507190141 16 90 0.0 3.2 0.00 0.13 0.10 80 1013.9
20260507185938 16 112 3.2 3.2 0.00 0.13 0.10 80 1013.8
20260507185738 16 90 3.2 3.2 0.00 0.13 0.10 80 1013.7
20260507185544 16 90 3.2 3.2 0.00 0.13 0.10 80 1013.5
20260507185339 16 90 3.2 3.2 0.00 0.13 0.10 80 1013.6
20260507185140 16 68 3.2 3.2 0.00 0.13 0.10 79 1013.6
20260507184938 16 68 3.2 6.4 0.00 0.13 0.10 79 1013.5
20260507184737 16 112 3.2 6.4 0.00 0.13 0.10 79 1013.5
20260507184544 16 112 3.2 6.4 0.00 0.13 0.10 79 1013.5
20260507184338 16 90 3.2 6.4 0.00 0.13 0.10 78 1013.6
20260507183939 17 90 4.8 6.4 0.00 0.13 0.10 78 1013.6
20260507183739 17 90 4.8 6.4 0.00 0.13 0.10 77 1013.6
20260507183541 17 90 3.2 6.4 0.00 0.13 0.10 77 1013.6
20260507183338 17 112 3.2 3.2 0.00 0.13 0.10 76 1013.4
20260507183138 17 112 3.2 6.4 0.00 0.13 0.10 76 1013.6
20260507182938 17 112 3.2 6.4 0.00 0.13 0.10 76 1013.3
20260507182737 17 90 4.8 6.4 0.00 0.13 0.10 75 1013.4
20260507182544 17 112 4.8 9.7 0.00 0.13 0.10 74 1013.3
20260507182338 17 112 3.2 6.4 0.00 0.13 0.10 74 1013.5
20260507182140 17 90 3.2 6.4 0.00 0.13 0.10 74 1013.4
20260507181939 17 112 6.4 11.3 0.00 0.13 0.10 74 1013.4
20260507181737 17 112 6.4 6.4 0.00 0.13 0.10 74 1013.4
20260507181544 17 112 4.8 9.7 0.00 0.13 0.10 74 1013.5
20260507181339 17 112 6.4 9.7 0.00 0.13 0.10 74 1013.4
20260507181139 17 90 4.8 9.7 0.00 0.13 0.10 74 1013.6
20260507180939 17 112 6.4 6.4 0.00 0.13 0.10 74 1013.6
20260507180738 17 112 4.8 9.7 0.00 0.13 0.10 74 1013.7
20260507180541 17 135 4.8 6.4 0.00 0.13 0.10 75 1013.7
20260507180338 17 135 4.8 6.4 0.00 0.13 0.10 75 1013.8
20260507175938 17 135 8.0 12.9 0.00 0.13 0.10 75 1013.8
20260507175545 17 112 6.4 14.5 0.00 0.13 0.10 75 1013.7
20260507175137 17 135 4.8 6.4 0.00 0.13 0.10 74 1013.6
20260507174938 17 90 4.8 9.7 0.00 0.13 0.10 74 1013.6
20260507174737 17 180 3.2 6.4 0.00 0.13 0.10 74 1013.6
20260507174543 17 158 6.4 11.3 0.00 0.13 0.10 74 1013.6
20260507174338 17 202 6.4 11.3 0.00 0.13 0.10 74 1013.4
20260507174140 17 90 6.4 9.7 0.00 0.13 0.10 74 1013.6
20260507173941 17 180 4.8 6.4 0.00 0.13 0.10 74 1013.5
20260507173738 17 202 3.2 3.2 0.00 0.13 0.10 73 1013.5
20260507173338 17 112 4.8 6.4 0.00 0.13 0.10 73 1013.5
20260507173140 17 112 4.8 6.4 0.00 0.13 0.10 73 1013.4
20260507172937 17 180 3.2 6.4 0.00 0.13 0.10 73 1013.6
20260507172737 18 90 4.8 6.4 0.00 0.13 0.10 73 1013.4
20260507172544 18 180 3.2 6.4 0.00 0.13 0.10 73 1013.4
20260507172140 18 112 3.2 9.7 0.00 0.13 0.10 72 1013.5
20260507171938 18 90 3.2 3.2 0.00 0.13 0.10 71 1013.4
20260507171544 18 135 3.2 6.4 0.00 0.13 0.10 71 1013.5
20260507171139 18 158 8.0 12.9 0.00 0.13 0.10 70 1013.5
20260507170940 18 90 1.6 3.2 0.00 0.13 0.10 71 1013.5
20260507170738 18 135 3.2 3.2 0.00 0.13 0.10 70 1013.5
20260507170543 18 135 4.8 9.7 0.00 0.13 0.10 70 1013.6
20260507170338 18 180 4.8 11.3 0.00 0.13 0.10 69 1013.7
20260507170139 18 135 6.4 9.7 0.00 0.13 0.10 69 1013.7
20260507165938 18 90 6.4 9.7 0.00 0.13 0.10 70 1013.6
20260507165738 18 90 6.4 6.4 0.00 0.13 0.10 71 1013.7
20260507165339 18 135 3.2 9.7 0.00 0.13 0.10 70 1013.8
20260507165139 18 135 6.4 9.7 0.00 0.13 0.10 70 1013.8
20260507164937 18 112 6.4 12.9 0.00 0.13 0.10 70 1013.8
20260507164737 18 135 3.2 6.4 0.00 0.13 0.10 71 1013.6
20260507164545 18 90 4.8 6.4 0.00 0.13 0.10 71 1013.8
20260507164338 18 90 6.4 9.7 0.00 0.13 0.10 71 1013.8
20260507164139 18 112 6.4 9.7 0.00 0.13 0.10 71 1013.7
20260507163750 18 135 6.4 12.9 0.00 0.13 0.10 70 1013.7
20260507163542 18 112 6.4 9.7 0.00 0.13 0.10 70 1013.7
20260507163140 18 112 9.7 14.5 0.00 0.13 0.10 70 1013.8
20260507162738 18 135 9.7 12.9 0.00 0.13 0.10 70 1013.8
20260507162546 18 112 8.0 11.3 0.00 0.13 0.10 70 1013.6
20260507162339 18 90 4.8 6.4 0.00 0.13 0.10 70 1013.7
20260507162138 18 135 4.8 9.7 0.00 0.13 0.10 69 1013.7
20260507161939 18 112 4.8 9.7 0.00 0.13 0.10 69 1013.8
20260507161545 18 112 3.2 6.4 0.00 0.13 0.10 68 1013.9
20260507161338 18 112 6.4 11.3 0.00 0.13 0.10 67 1013.7
20260507160940 19 112 6.4 6.4 0.00 0.13 0.10 66 1013.8
20260507160737 19 135 8.0 12.9 0.00 0.13 0.10 66 1013.8
20260507160542 19 180 4.8 9.7 0.00 0.13 0.10 65 1013.9
20260507160338 19 158 4.8 11.3 0.00 0.13 0.10 66 1013.8
20260507160140 19 158 6.4 6.4 0.00 0.13 0.10 66 1013.9
20260507155938 19 135 3.2 6.4 0.00 0.13 0.10 66 1013.9
20260507155738 19 158 3.2 3.2 0.00 0.13 0.10 66 1013.7
20260507155545 19 90 6.4 11.3 0.00 0.13 0.10 65 1013.5
20260507155338 19 112 4.8 6.4 0.00 0.13 0.10 65 1013.6
20260507155139 19 202 3.2 6.4 0.00 0.13 0.10 64 1013.6
20260507154938 19 112 4.8 11.3 0.00 0.13 0.10 64 1013.7
20260507154737 19 112 6.4 11.3 0.00 0.13 0.10 63 1013.7
20260507154544 19 180 6.4 9.7 0.00 0.13 0.10 63 1013.6
20260507154338 20 112 4.8 6.4 0.00 0.13 0.10 62 1013.5
20260507154139 20 112 6.4 9.7 0.00 0.13 0.10 63 1013.5
20260507153939 20 112 6.4 12.9 0.00 0.13 0.10 60 1013.3
20260507153738 20 135 4.8 9.7 0.00 0.13 0.10 61 1013.5
20260507153541 20 180 8.0 14.5 0.00 0.13 0.10 61 1013.3
20260507153339 20 135 6.4 12.9 0.00 0.13 0.10 61 1013.5
20260507153138 20 135 8.0 12.9 0.00 0.13 0.10 59 1013.5
20260507152938 20 112 6.4 9.7 0.00 0.13 0.10 59 1013.5
20260507152738 20 158 6.4 12.9 0.00 0.13 0.10 60 1013.6
20260507152338 20 90 6.4 11.3 0.00 0.13 0.10 59 1013.5
20260507152138 20 180 4.8 6.4 0.00 0.13 0.10 61 1013.7
20260507151938 20 135 9.7 14.5 0.00 0.13 0.10 61 1013.7
20260507151544 20 112 6.4 14.5 0.00 0.13 0.10 59 1013.6
20260507151137 20 158 6.4 11.3 0.00 0.13 0.10 60 1013.5
20260507150941 20 158 9.7 11.3 0.00 0.13 0.10 60 1013.6
20260507150738 20 180 9.7 20.9 0.00 0.13 0.10 59 1013.6
20260507150541 20 135 8.0 12.9 0.00 0.13 0.10 59 1013.6
20260507150138 20 158 6.4 11.3 0.00 0.13 0.10 59 1013.8
20260507145938 20 180 8.0 17.7 0.00 0.13 0.10 57 1013.7
20260507145738 20 158 6.4 12.9 0.00 0.13 0.10 56 1013.7
20260507145546 20 202 4.8 11.3 0.00 0.13 0.10 58 1013.6
20260507145339 20 225 9.7 14.5 0.00 0.13 0.10 58 1013.8
20260507145139 20 112 6.4 12.9 0.00 0.13 0.10 58 1013.9
20260507144937 20 112 6.4 11.3 0.00 0.13 0.10 59 1013.7
20260507144740 20 180 8.0 17.7 0.00 0.13 0.10 59 1013.8
20260507144546 20 90 12.9 22.5 0.00 0.13 0.10 59 1014.1
20260507144337 20 90 12.9 20.9 0.00 0.13 0.10 59 1014.2
20260507144138 20 112 9.7 17.7 0.00 0.13 0.10 59 1014.3
20260507143940 20 180 8.0 12.9 0.00 0.13 0.10 59 1013.9
20260507143541 20 135 6.4 12.9 0.00 0.13 0.10 58 1013.9
20260507143336 20 135 9.7 14.5 0.00 0.13 0.10 57 1013.9
20260507142737 20 112 11.3 17.7 0.00 0.13 0.10 58 1013.8
20260507142545 20 90 6.4 12.9 0.00 0.13 0.10 59 1013.7
20260507142337 20 135 11.3 14.5 0.00 0.13 0.10 60 1013.8
20260507142138 21 158 11.3 17.7 0.00 0.13 0.10 59 1013.9
20260507141938 20 158 4.8 6.4 0.00 0.13 0.10 63 1014.0
20260507141738 20 90 9.7 12.9 0.00 0.13 0.10 62 1014.0
20260507141545 20 158 4.8 9.7 0.00 0.13 0.10 64 1013.9
20260507141139 20 112 4.8 9.7 0.00 0.13 0.10 64 1014.0
20260507140939 20 112 6.4 9.7 0.00 0.13 0.10 65 1014.2
20260507140738 19 158 6.4 9.7 0.00 0.13 0.10 67 1014.2
20260507140541 19 90 6.4 11.3 0.00 0.13 0.10 67 1014.0
20260507140337 19 135 9.7 14.5 0.00 0.13 0.10 66 1014.2
20260507140138 19 90 9.7 14.5 0.00 0.13 0.10 66 1014.3
20260507135736 20 135 11.3 17.7 0.00 0.13 0.10 67 1014.4
20260507135544 20 90 6.4 11.3 0.00 0.13 0.10 66 1014.3
20260507135337 20 112 6.4 12.9 0.00 0.13 0.10 66 1014.4
20260507134938 20 135 8.0 12.9 0.00 0.13 0.10 65 1014.5
20260507134738 20 158 6.4 12.9 0.00 0.13 0.10 65 1014.5
20260507134544 20 112 11.3 17.7 0.00 0.13 0.10 63 1014.3
20260507134338 20 112 8.0 12.9 0.00 0.13 0.10 65 1014.5
20260507133939 20 112 8.0 14.5 0.00 0.13 0.10 68 1014.5
20260507133738 20 90 6.4 11.3 0.00 0.13 0.10 67 1014.4
20260507133337 20 112 9.7 14.5 0.00 0.13 0.10 64 1014.2
20260507132937 20 158 4.8 9.7 0.00 0.13 0.10 67 1014.3
20260507132738 20 68 8.0 12.9 0.00 0.13 0.10 67 1014.4
20260507132545 20 180 9.7 17.7 0.00 0.13 0.10 67 1014.5
20260507132338 20 135 11.3 14.5 0.00 0.13 0.10 66 1014.5
20260507132138 20 112 8.0 17.7 0.00 0.13 0.10 69 1014.6
20260507131938 20 135 11.3 17.7 0.00 0.13 0.10 69 1014.8
20260507131737 20 135 9.7 12.9 0.00 0.13 0.10 69 1014.7
20260507131337 20 112 8.0 14.5 0.00 0.13 0.10 68 1014.8
20260507130939 20 90 6.4 17.7 0.00 0.13 0.10 71 1014.8
20260507130737 19 112 6.4 11.3 0.00 0.13 0.10 70 1014.7
20260507130541 19 90 12.9 17.7 0.00 0.13 0.10 70 1014.8
20260507130336 20 158 12.9 20.9 0.00 0.13 0.10 70 1014.9
20260507130137 20 112 12.9 17.7 0.00 0.13 0.10 71 1014.9
20260507125938 20 112 8.0 12.9 0.00 0.13 0.10 72 1014.9
20260507125545 20 180 8.0 14.5 0.00 0.13 0.10 71 1014.8
20260507125338 20 90 6.4 12.9 0.00 0.13 0.10 72 1014.9
20260507125137 19 112 9.7 14.5 0.00 0.13 0.10 74 1014.7
20260507124937 20 112 14.5 20.9 0.00 0.13 0.10 75 1014.6
20260507124737 20 135 9.7 14.5 0.00 0.13 0.10 74 1014.9
20260507124543 20 90 8.0 12.9 0.00 0.13 0.10 74 1014.8
20260507124336 20 158 6.4 6.4 0.00 0.13 0.10 74 1015.0
20260507123939 20 135 9.7 14.5 0.00 0.13 0.10 75 1015.0
20260507123737 20 90 11.3 17.7 0.00 0.13 0.10 73 1014.8
20260507123541 20 90 8.0 17.7 0.00 0.13 0.10 74 1015.0
20260507123139 20 180 6.4 17.7 0.00 0.13 0.10 71 1015.1
20260507122938 20 112 8.0 11.3 0.00 0.13 0.10 73 1015.0
20260507122737 20 112 9.7 17.7 0.00 0.13 0.10 76 1015.0
20260507122543 20 112 14.5 17.7 0.00 0.13 0.10 74 1015.0
20260507122338 20 90 8.0 11.3 0.00 0.13 0.10 76 1014.9
20260507122137 20 90 12.9 17.7 0.00 0.13 0.10 75 1015.0
20260507121938 20 90 6.4 12.9 0.00 0.13 0.10 76 1014.8
20260507121737 19 90 6.4 12.9 0.00 0.13 0.10 76 1014.8
20260507121544 20 90 14.5 20.9 0.00 0.13 0.10 73 1015.0
20260507121337 20 112 8.0 14.5 0.00 0.13 0.10 75 1015.2
20260507121138 20 112 9.7 14.5 0.00 0.13 0.10 76 1015.2
20260507120737 19 90 9.7 17.7 0.00 0.13 0.10 73 1015.2
20260507120541 19 112 12.9 17.7 0.00 0.13 0.10 75 1015.1
20260507120337 19 112 12.9 17.7 0.00 0.13 0.10 75 1015.1
20260507120137 19 112 12.9 17.7 0.00 0.13 0.10 75 1015.1
20260507115939 19 112 6.4 11.3 0.00 0.13 0.10 75 1015.2
20260507115737 19 112 6.4 12.9 0.00 0.13 0.10 75 1015.4
20260507115545 18 112 11.3 17.7 0.00 0.13 0.10 77 1015.3
20260507115337 18 90 6.4 11.3 0.00 0.13 0.10 78 1015.2
20260507115138 18 112 8.0 17.7 0.00 0.13 0.10 77 1015.3
20260507114937 19 135 12.9 17.7 0.00 0.13 0.10 76 1015.4
20260507114544 20 135 11.3 14.5 0.00 0.13 0.10 73 1015.3
20260507114337 20 68 11.3 14.5 0.00 0.13 0.10 73 1015.3
20260507114137 19 112 4.8 9.7 0.00 0.13 0.10 75 1015.4
20260507113941 19 135 8.0 17.7 0.00 0.13 0.10 74 1015.3
20260507113737 19 112 6.4 9.7 0.00 0.13 0.10 75 1015.3
20260507113542 19 112 6.4 12.9 0.00 0.13 0.10 76 1015.4
20260507113337 19 135 8.0 11.3 0.00 0.13 0.10 76 1015.5
20260507113138 19 180 6.4 12.9 0.00 0.13 0.10 76 1015.6
20260507112938 19 112 4.8 6.4 0.00 0.13 0.10 77 1015.5
20260507112738 19 135 8.0 12.9 0.00 0.13 0.10 78 1015.5
20260507112544 19 158 4.8 6.4 0.00 0.13 0.10 80 1015.7
20260507112338 19 112 6.4 12.9 0.00 0.13 0.10 78 1015.6
20260507112138 19 135 6.4 6.4 0.00 0.13 0.10 80 1015.9
20260507111937 19 180 6.4 11.3 0.00 0.13 0.10 79 1015.7
20260507111737 19 112 6.4 17.7 0.00 0.13 0.10 80 1015.8
20260507111543 19 158 6.4 11.3 0.00 0.13 0.10 79 1015.7
20260507111339 19 158 6.4 12.9 0.00 0.13 0.10 79 1015.8
20260507110939 19 135 6.4 9.7 0.00 0.13 0.10 80 1015.7
20260507110737 18 202 6.4 11.3 0.00 0.13 0.10 81 1015.5
20260507110540 18 135 9.7 17.7 0.00 0.13 0.10 81 1015.8
20260507110337 18 90 8.0 12.9 0.00 0.13 0.10 81 1015.7
20260507105738 18 158 3.2 6.4 0.00 0.13 0.10 83 1015.6
20260507105337 18 112 3.2 6.4 0.00 0.13 0.10 84 1015.7
20260507105138 18 135 12.9 20.9 0.00 0.13 0.10 83 1015.8
20260507104937 18 225 8.0 12.9 0.00 0.13 0.10 83 1015.9
20260507104738 19 112 6.4 9.7 0.00 0.13 0.10 83 1015.8
20260507104339 18 135 6.4 12.9 0.00 0.13 0.10 84 1016.0
20260507103941 18 158 8.0 12.9 0.00 0.13 0.10 84 1015.8
20260507103738 18 135 4.8 6.4 0.00 0.13 0.10 85 1015.8
20260507103541 18 112 6.4 12.9 0.00 0.13 0.10 85 1015.7
20260507102937 18 112 6.4 17.7 0.00 0.13 0.10 85 1015.6
20260507102544 18 180 3.2 6.4 0.00 0.13 0.10 86 1015.7
20260507102337 18 112 6.4 11.3 0.00 0.13 0.10 85 1015.8
20260507102138 18 292 6.4 9.7 0.00 0.13 0.10 85 1015.6
20260507101938 18 90 6.4 9.7 0.00 0.13 0.10 86 1015.7
20260507101738 18 112 6.4 9.7 0.00 0.13 0.10 85 1015.9
20260507101545 18 135 6.4 9.7 0.00 0.13 0.10 86 1015.7
20260507101337 18 158 6.4 11.3 0.00 0.13 0.10 86 1015.7
20260507101137 18 202 8.0 17.7 0.00 0.13 0.10 86 1015.8
20260507100738 18 135 9.7 12.9 0.00 0.13 0.10 85 1015.6
20260507100338 18 158 6.4 9.7 0.00 0.13 0.10 85 1016.0
20260507100138 18 180 3.2 6.4 0.00 0.13 0.10 85 1015.8
20260507095937 18 112 6.4 12.9 0.00 0.13 0.10 85 1015.6
20260507095738 18 135 6.4 11.3 0.00 0.13 0.10 85 1015.5
20260507095543 18 135 4.8 9.7 0.00 0.13 0.10 84 1015.7
20260507095336 18 135 6.4 11.3 0.00 0.13 0.10 84 1015.6
20260507094937 18 158 6.4 9.7 0.00 0.13 0.10 84 1015.7
20260507094337 18 112 6.4 11.3 0.00 0.13 0.10 83 1015.5
20260507094139 18 112 6.4 9.7 0.00 0.13 0.10 83 1015.4
20260507093939 19 135 9.7 14.5 0.00 0.13 0.10 83 1015.3
20260507093737 19 135 3.2 9.7 0.00 0.13 0.10 83 1015.2
20260507093540 18 158 8.0 12.9 0.00 0.13 0.10 83 1015.4
20260507093137 18 180 6.4 11.3 0.00 0.13 0.10 83 1015.5
20260507092937 18 180 4.8 11.3 0.00 0.13 0.10 83 1015.6
20260507092739 18 202 6.4 9.7 0.00 0.13 0.10 84 1015.5
20260507092544 18 135 8.0 11.3 0.00 0.13 0.10 84 1015.4
20260507092338 18 158 8.0 12.9 0.00 0.13 0.10 84 1015.5
20260507092138 18 158 6.4 12.9 0.00 0.13 0.10 84 1015.5
20260507091938 18 135 6.4 12.9 0.00 0.13 0.10 84 1015.5
20260507091737 18 158 6.4 11.3 0.00 0.13 0.10 85 1015.6
20260507091544 18 248 9.7 17.7 0.00 0.13 0.10 85 1015.6
20260507091136 18 135 8.0 17.7 0.00 0.13 0.10 87 1015.5
20260507090940 18 112 6.4 17.7 0.00 0.13 0.10 88 1015.4
20260507090737 18 112 3.2 6.4 0.00 0.13 0.10 89 1015.3
20260507090540 18 135 3.2 6.4 0.00 0.13 0.10 90 1015.3
20260507090337 17 202 6.4 12.9 0.00 0.13 0.10 90 1015.4
20260507090137 17 112 9.7 12.9 0.00 0.13 0.10 90 1015.3
20260507085939 17 112 8.0 14.5 0.00 0.13 0.10 91 1015.4
20260507085738 17 112 8.0 14.5 0.00 0.13 0.10 92 1015.1
20260507085543 17 158 4.8 6.4 0.00 0.13 0.10 92 1015.2
20260507085337 17 135 6.4 11.3 0.00 0.13 0.10 92 1015.3
20260507085136 17 135 8.0 14.5 0.00 0.13 0.10 93 1015.5
20260507084736 17 158 6.4 11.3 0.00 0.13 0.10 93 1015.6
20260507084337 17 135 4.8 6.4 0.00 0.13 0.10 94 1015.4
20260507084137 17 135 6.4 11.3 0.00 0.13 0.10 94 1015.4
20260507083939 17 158 3.2 6.4 0.00 0.13 0.10 94 1015.3
20260507083737 17 135 4.8 9.7 0.00 0.13 0.10 94 1015.1
20260507083541 17 112 6.4 6.4 0.00 0.13 0.10 94 1015.1
20260507083337 17 112 6.4 12.9 0.00 0.13 0.10 94 1015.0
20260507083136 17 112 8.0 14.5 0.00 0.13 0.10 94 1015.1
20260507082938 17 135 8.0 14.5 0.00 0.13 0.10 94 1015.0
20260507082736 17 135 12.9 17.7 0.00 0.13 0.10 95 1015.0
20260507082544 17 135 6.4 9.7 0.00 0.13 0.10 95 1015.0
20260507082336 17 158 4.8 6.4 0.00 0.13 0.10 95 1014.9
20260507081937 17 112 6.4 9.7 0.00 0.13 0.10 95 1015.0
20260507081737 17 112 6.4 9.7 0.00 0.13 0.10 95 1015.1
20260507081544 17 112 9.7 17.7 0.00 0.13 0.10 95 1015.0
20260507081337 17 68 6.4 9.7 0.00 0.13 0.10 95 1015.0
20260507081137 17 68 6.4 9.7 0.00 0.13 0.10 95 1015.0
20260507080939 17 112 9.7 12.9 0.00 0.13 0.10 95 1015.3
20260507080737 17 90 6.4 11.3 0.00 0.13 0.10 95 1015.1
20260507080337 17 135 6.4 11.3 0.00 0.13 0.10 95 1015.2
20260507075937 17 68 6.4 12.9 0.00 0.13 0.10 95 1015.4
20260507075543 17 112 6.4 9.7 0.00 0.13 0.10 95 1015.4
20260507075337 17 135 6.4 14.5 0.00 0.13 0.10 95 1015.4
20260507074737 17 68 6.4 11.3 0.00 0.13 0.10 95 1015.3
20260507074138 17 68 6.4 11.3 0.00 0.13 0.10 95 1014.8
20260507073939 17 90 9.7 12.9 0.00 0.13 0.10 95 1015.0
20260507073137 17 68 8.0 14.5 0.00 0.13 0.10 95 1014.9
20260507072937 17 45 8.0 14.5 0.00 0.13 0.10 95 1015.1
20260507072544 17 68 4.8 6.4 0.00 0.13 0.10 95 1014.9
20260507072136 17 68 6.4 11.3 0.00 0.13 0.10 95 1015.0
20260507071938 17 68 11.3 14.5 0.00 0.13 0.10 95 1015.0
20260507071737 17 68 6.4 11.3 0.00 0.13 0.10 95 1015.1
20260507071545 17 45 6.4 9.7 0.00 0.13 0.10 95 1015.2
20260507071337 17 22 4.8 6.4 0.00 0.13 0.10 95 1015.0
20260507071138 17 45 11.3 12.9 0.00 0.13 0.10 95 1015.3
20260507070737 16 45 4.8 6.4 0.00 0.13 0.10 95 1015.3
20260507070541 16 0 4.8 6.4 0.00 0.13 0.10 95 1015.6
20260507070337 17 22 4.8 9.7 0.00 0.13 0.10 95 1015.6
20260507070138 17 45 3.2 3.2 0.00 0.13 0.10 95 1015.8
20260507065937 17 338 0.0 3.2 0.00 0.13 0.10 95 1015.7
20260507065544 17 22 3.2 6.4 0.00 0.13 0.10 95 1016.0
20260507065138 17 338 0.0 0.0 0.00 0.13 0.10 95 1016.1
20260507064937 17 315 1.6 3.2 0.00 0.13 0.10 95 1015.9
20260507064737 17 112 0.0 3.2 0.00 0.13 0.10 95 1016.2
20260507064544 17 22 1.6 3.2 0.00 0.13 0.10 95 1016.4
20260507064337 16 90 4.8 9.7 0.00 0.13 0.10 95 1016.1
20260507063941 16 68 6.4 11.3 0.00 0.13 0.10 95 1015.6
20260507063738 16 0 6.4 11.3 0.00 0.13 0.10 95 1015.5
20260507063541 16 45 12.9 17.7 0.00 0.13 0.10 95 1015.4
20260507063138 16 45 6.4 12.9 0.00 0.13 0.10 95 1015.3
20260507062938 16 68 8.0 11.3 0.00 0.13 0.10 95 1015.1
20260507062737 16 0 6.4 12.9 0.00 0.13 0.10 95 1015.1
20260507062337 16 68 6.4 11.3 0.00 0.13 0.10 95 1015.0
20260507062137 16 0 6.4 12.9 0.00 0.13 0.10 95 1015.0
20260507061938 16 45 6.4 14.5 0.00 0.13 0.10 95 1014.8
20260507061737 16 45 8.0 12.9 0.00 0.13 0.10 95 1015.1
20260507061544 16 338 4.8 6.4 0.00 0.13 0.10 95 1015.8
20260507061338 16 22 3.2 3.2 0.00 0.13 0.10 95 1016.1
20260507061136 17 315 0.0 3.2 0.00 0.13 0.10 95 1016.5
20260507060939 17 338 0.0 3.2 0.00 0.13 0.10 95 1016.3
20260507060737 16 22 1.6 3.2 0.00 0.13 0.10 95 1016.3
20260507060541 16 22 1.6 3.2 0.00 0.13 0.10 95 1016.3
20260507060337 16 22 1.6 3.2 0.00 0.13 0.10 95 1016.3
20260507060202 16 22 1.6 3.2 0.00 0.13 0.10 95 1016.3
20260507055937 16 315 3.2 6.4 0.00 0.13 0.10 95 1016.2
20260507055738 16 315 1.6 3.2 0.00 0.13 0.10 95 1016.4
20260507055544 16 315 1.6 3.2 0.00 0.13 0.10 95 1016.5
20260507055336 16 315 1.6 3.2 0.00 0.13 0.10 95 1016.4
20260507055137 16 315 3.2 6.4 0.00 0.13 0.10 95 1016.4
20260507054938 16 315 1.6 3.2 0.00 0.13 0.10 95 1016.5
20260507054737 16 315 0.0 3.2 0.00 0.13 0.10 95 1016.3
20260507054543 16 315 0.0 0.0 0.00 0.13 0.10 95 1016.2
20260507054140 16 338 0.0 0.0 0.00 0.13 0.10 95 1016.2
20260507053338 16 22 3.2 6.4 0.00 0.13 0.10 95 1016.3
20260507053138 16 45 1.6 3.2 0.00 0.13 0.10 95 1016.2
20260507052937 16 315 1.6 3.2 0.00 0.13 0.10 95 1016.1
20260507052737 16 315 3.2 6.4 0.00 0.13 0.10 95 1016.1
20260507052542 16 338 0.0 0.0 0.00 0.13 0.10 95 1016.2
20260507052337 16 338 0.0 0.0 0.00 0.13 0.10 95 1016.1
20260507052139 16 338 0.0 3.2 0.00 0.13 0.10 95 1016.2
20260507051937 16 0 1.6 3.2 0.00 0.13 0.10 95 1016.2
20260507051737 16 315 1.6 6.4 0.00 0.13 0.10 95 1016.2
20260507051544 16 315 3.2 3.2 0.00 0.13 0.10 95 1016.2
20260507051338 16 315 3.2 6.4 0.00 0.13 0.10 95 1016.2
20260507051138 16 292 3.2 6.4 0.00 0.13 0.10 95 1016.2
20260507050940 16 292 3.2 6.4 0.00 0.13 0.10 95 1016.1
20260507050738 16 292 3.2 6.4 0.00 0.13 0.10 95 1016.4
20260507050543 16 338 3.2 3.2 0.00 0.13 0.10 95 1016.4
20260507050338 16 315 3.2 6.4 0.00 0.13 0.10 95 1016.2
20260507050139 16 315 3.2 6.4 0.00 0.13 0.10 95 1016.4
20260507045938 16 0 3.2 6.4 0.00 0.13 0.10 95 1016.1
20260507045544 16 315 4.8 6.4 0.00 0.13 0.10 95 1016.3
20260507045337 16 338 6.4 9.7 0.00 0.13 0.10 95 1016.2
20260507044938 16 315 3.2 6.4 0.00 0.13 0.10 95 1016.1
20260507044737 16 315 3.2 6.4 0.00 0.13 0.10 95 1016.3
20260507044549 16 292 4.8 6.4 0.00 0.13 0.10 95 1016.2
20260507044337 16 315 4.8 9.7 0.00 0.13 0.10 95 1016.3
20260507043942 16 338 6.4 11.3 0.00 0.13 0.10 95 1016.2
20260507043546 16 270 3.2 3.2 0.00 0.13 0.10 95 1016.2
20260507043337 16 292 4.8 11.3 0.00 0.13 0.10 95 1016.3
20260507043138 16 315 3.2 3.2 0.00 0.13 0.10 95 1016.1
20260507042939 16 292 6.4 11.3 0.00 0.13 0.10 95 1016.1
20260507042738 16 315 3.2 6.4 0.00 0.13 0.10 95 1015.9
20260507042547 16 292 3.2 6.4 0.00 0.13 0.10 95 1015.8
20260507042138 16 315 3.2 6.4 0.00 0.13 0.10 95 1015.5
20260507041939 16 315 3.2 9.7 0.00 0.13 0.10 95 1015.4
20260507041739 16 315 4.8 9.7 0.00 0.13 0.10 95 1015.5
20260507041544 16 315 3.2 6.4 0.00 0.13 0.10 95 1015.3
20260507041339 16 315 6.4 9.7 0.00 0.13 0.10 95 1015.3
20260507041139 16 315 4.8 6.4 0.00 0.13 0.10 95 1015.3
20260507040939 16 315 4.8 9.7 0.00 0.13 0.10 95 1015.2
20260507040738 16 315 4.8 9.7 0.00 0.13 0.10 95 1015.2
20260507040541 16 315 6.4 6.4 0.00 0.13 0.10 95 1015.1
20260507040337 16 292 3.2 6.4 0.00 0.13 0.10 95 1015.1
20260507040137 16 315 3.2 6.4 0.00 0.13 0.10 95 1015.1
20260507035938 16 292 3.2 6.4 0.00 0.13 0.10 95 1015.0
20260507035736 16 315 6.4 11.3 0.00 0.13 0.10 95 1014.9
20260507035545 16 315 6.4 9.7 0.00 0.13 0.10 95 1014.9
20260507035337 16 292 6.4 6.4 0.00 0.13 0.10 95 1015.2
20260507035137 16 270 6.4 11.3 0.00 0.13 0.10 95 1015.2
20260507034938 16 270 6.4 11.3 0.00 0.13 0.10 95 1015.1
20260507034737 16 292 6.4 9.7 0.00 0.13 0.10 95 1015.0
20260507034544 16 292 6.4 9.7 0.00 0.13 0.10 95 1015.0
20260507034338 16 338 3.2 3.2 0.00 0.13 0.10 95 1014.8
20260507034138 16 315 3.2 6.4 0.00 0.13 0.10 95 1014.9
20260507033939 16 292 1.6 3.2 0.00 0.13 0.10 95 1014.6
20260507033737 16 338 0.0 0.0 0.00 0.13 0.10 95 1014.6
20260507033338 16 338 0.0 3.2 0.00 0.13 0.10 95 1014.6
20260507032938 16 0 3.2 6.4 0.00 0.13 0.10 95 1014.5
20260507032737 16 0 3.2 6.4 0.03 0.13 0.10 95 1014.5
20260507032337 16 338 0.0 0.0 0.03 0.13 0.10 95 1014.7
20260507032138 16 338 0.0 3.2 0.03 0.13 0.10 95 1014.9
20260507031939 16 315 0.0 0.0 0.03 0.13 0.10 95 1014.8
20260507031737 16 292 0.0 0.0 0.03 0.13 0.10 95 1015.0
20260507031337 16 292 3.2 3.2 0.03 0.13 0.10 95 1015.3
20260507030940 16 292 3.2 3.2 0.03 0.13 0.10 95 1015.3
20260507030737 16 292 0.0 0.0 0.03 0.13 0.10 95 1015.1
20260507030540 16 292 0.0 0.0 0.03 0.13 0.10 95 1015.1
20260507030337 16 292 0.0 0.0 0.03 0.13 0.10 95 1015.1
20260507030136 16 292 0.0 0.0 0.03 0.13 0.10 95 1014.9
20260507025736 16 292 0.0 0.0 0.03 0.13 0.10 95 1014.9
20260507025138 16 338 0.0 3.2 0.03 0.13 0.10 95 1014.9
20260507024938 16 315 1.6 3.2 0.03 0.13 0.10 95 1014.7
20260507024543 16 315 1.6 3.2 0.03 0.13 0.10 95 1014.7
20260507024337 16 338 3.2 3.2 0.03 0.13 0.10 95 1014.5
20260507024137 16 315 3.2 6.4 0.03 0.13 0.10 95 1014.6
20260507023939 16 292 3.2 6.4 0.03 0.13 0.10 95 1014.9
20260507023738 16 315 3.2 6.4 0.03 0.13 0.10 95 1015.1
20260507023542 16 315 3.2 3.2 0.03 0.13 0.10 95 1014.9
20260507023337 16 315 1.6 3.2 0.03 0.13 0.10 95 1015.0
20260507023137 16 338 1.6 3.2 0.03 0.13 0.10 95 1015.1
20260507022938 16 315 1.6 3.2 0.00 0.10 0.08 95 1015.0
20260507022739 16 0 1.6 3.2 0.00 0.10 0.08 95 1015.0
20260507022340 16 315 1.6 3.2 0.00 0.10 0.08 95 1015.1
20260507022136 16 315 0.0 3.2 0.00 0.10 0.08 95 1015.3
20260507021936 16 270 0.0 0.0 0.00 0.10 0.08 95 1015.1
20260507021743 16 270 0.0 0.0 0.00 0.10 0.08 95 1015.1
20260507021543 16 270 0.0 0.0 0.00 0.10 0.08 95 1015.3
20260507021338 16 270 0.0 0.0 0.00 0.10 0.08 95 1015.2
20260507020941 16 270 3.2 3.2 0.00 0.10 0.08 95 1015.2
20260507020737 16 270 3.2 6.4 0.00 0.10 0.08 95 1015.4
20260507020541 16 248 3.2 3.2 0.00 0.10 0.08 95 1015.5
20260507020338 16 248 3.2 6.4 0.00 0.10 0.08 95 1015.4
20260507015937 16 248 3.2 3.2 0.00 0.10 0.08 95 1015.2
20260507015736 16 270 1.6 3.2 0.00 0.10 0.08 95 1015.3
20260507015545 16 248 0.0 0.0 0.00 0.10 0.08 95 1015.4
20260507015338 16 248 1.6 3.2 0.00 0.10 0.08 95 1015.3
20260507015137 16 270 3.2 6.4 0.00 0.10 0.08 95 1015.3
20260507014938 16 225 1.6 3.2 0.00 0.10 0.08 95 1015.4
20260507014736 16 248 1.6 3.2 0.00 0.10 0.08 95 1015.4
20260507014543 16 248 1.6 3.2 0.00 0.10 0.08 95 1015.4
20260507014339 16 225 3.2 6.4 0.00 0.10 0.08 95 1015.3
20260507014139 16 225 3.2 6.4 0.03 0.10 0.08 95 1015.3
20260507013939 16 225 4.8 6.4 0.03 0.10 0.08 95 1015.5
20260507013738 16 225 3.2 3.2 0.03 0.10 0.08 95 1015.3
20260507013547 16 202 1.6 3.2 0.03 0.10 0.08 95 1015.2
20260507013339 16 180 3.2 3.2 0.03 0.10 0.08 95 1015.1
20260507012937 16 202 1.6 3.2 0.05 0.10 0.08 95 1014.9
20260507012738 16 270 0.0 3.2 0.05 0.10 0.08 95 1014.8
20260507012137 16 315 3.2 6.4 0.05 0.10 0.08 95 1014.3
20260507011938 16 315 4.8 11.3 0.05 0.10 0.08 95 1014.1
20260507011737 16 315 3.2 6.4 0.05 0.10 0.08 95 1013.9
20260507011543 16 315 4.8 6.4 0.05 0.10 0.08 95 1014.1
20260507011338 16 315 3.2 6.4 0.05 0.10 0.08 95 1014.0
20260507011138 16 315 3.2 6.4 0.05 0.10 0.08 95 1013.9
20260507010738 16 315 3.2 3.2 0.05 0.10 0.08 95 1013.9
20260507010338 16 338 6.4 9.7 0.05 0.10 0.08 95 1013.9
20260507010138 16 338 3.2 6.4 0.05 0.10 0.08 95 1013.9
20260507005542 16 315 3.2 6.4 0.05 0.10 0.08 95 1013.8
20260507005337 16 315 4.8 6.4 0.05 0.10 0.08 95 1013.7
20260507005137 16 45 3.2 6.4 0.05 0.10 0.08 94 1013.6
20260507004937 16 315 3.2 3.2 0.05 0.10 0.08 95 1013.8
20260507004736 16 292 3.2 6.4 0.05 0.10 0.08 94 1013.6
20260507004543 16 338 4.8 9.7 0.05 0.10 0.08 94 1013.5
20260507004138 16 45 6.4 11.3 0.03 0.08 0.05 94 1013.2
20260507003939 16 68 9.7 14.5 0.03 0.08 0.05 94 1013.1
20260507003738 16 45 9.7 14.5 0.03 0.08 0.05 94 1012.9
20260507003540 16 45 6.4 9.7 0.03 0.08 0.05 94 1013.8
20260507003340 16 338 3.2 6.4 0.00 0.05 0.03 94 1014.2
20260507003137 16 338 3.2 6.4 0.00 0.05 0.03 94 1014.8
20260507002938 16 315 3.2 3.2 0.00 0.05 0.03 94 1015.0
20260507002544 16 292 1.6 3.2 0.00 0.05 0.03 94 1015.0
20260507002337 16 270 3.2 3.2 0.00 0.05 0.03 94 1015.0
20260507002138 16 270 3.2 6.4 0.00 0.05 0.03 94 1015.1
20260507001737 16 315 4.8 6.4 0.00 0.05 0.03 94 1014.8
20260507001339 16 315 1.6 3.2 0.00 0.05 0.03 94 1014.8
20260507001139 16 315 0.0 0.0 0.00 0.05 0.03 94 1014.9
20260507000940 16 315 0.0 0.0 0.00 0.05 0.03 94 1014.8
20260507000739 16 338 0.0 3.2 0.00 0.05 0.03 94 1014.7
20260507000542 16 270 3.2 3.2 0.00 0.05 0.03 94 1014.8
20260507000337 16 270 3.2 3.2 0.00 0.05 0.03 94 1015.0
20260507000139 16 270 3.2 3.2 0.00 0.05 0.03 94 1015.0
20260506235936 16 292 3.2 3.2 0.00 0.05 0.03 94 1014.7
20260506235544 16 315 1.6 3.2 0.00 0.05 0.03 94 1014.6
20260506235139 16 315 0.0 0.0 0.00 0.05 0.03 94 1014.7
20260506234937 16 315 0.0 0.0 0.00 0.05 0.03 94 1014.7
20260506234740 16 315 0.0 0.0 0.00 0.05 0.03 94 1014.6
20260506234544 16 315 0.0 3.2 0.00 0.05 0.03 94 1014.6
20260506234339 16 292 0.0 3.2 0.00 0.05 0.03 94 1014.5
20260506234139 16 315 1.6 3.2 0.00 0.05 0.03 94 1014.5
20260506233940 16 338 0.0 3.2 0.00 0.05 0.03 94 1014.5
20260506233739 16 0 1.6 3.2 0.00 0.05 0.03 94 1014.3
20260506233542 16 0 0.0 3.2 0.00 0.05 0.03 94 1014.3
20260506233337 16 0 0.0 3.2 0.00 0.05 0.03 94 1014.6
20260506233136 16 315 0.0 0.0 0.00 0.05 0.03 94 1014.5
20260506232938 16 315 0.0 3.2 0.00 0.05 0.03 94 1014.6
20260506232738 16 315 1.6 3.2 0.00 0.05 0.03 94 1014.7
20260506232546 16 315 0.0 0.0 0.00 0.05 0.03 94 1014.8
20260506232337 16 315 0.0 0.0 0.00 0.05 0.03 94 1014.8
20260506232137 16 315 0.0 0.0 0.00 0.05 0.03 94 1014.7
20260506231938 16 315 1.6 3.2 0.00 0.05 0.03 94 1014.8
20260506231737 16 338 1.6 3.2 0.03 0.05 0.03 93 1014.9
20260506231543 16 292 3.2 3.2 0.03 0.05 0.03 93 1014.7
20260506231338 16 292 1.6 3.2 0.03 0.05 0.03 93 1014.8
20260506231136 16 0 1.6 3.2 0.03 0.05 0.03 93 1014.6
20260506230940 16 22 1.6 3.2 0.03 0.05 0.03 93 1014.6
20260506230737 16 0 0.0 3.2 0.03 0.05 0.03 93 1014.7
20260506230337 16 315 1.6 3.2 0.03 0.05 0.03 93 1014.6
20260506230137 16 22 0.0 3.2 0.03 0.05 0.03 93 1014.5
20260506225938 16 338 3.2 6.4 0.03 0.05 0.03 93 1014.7
20260506225737 16 45 3.2 6.4 0.03 0.05 0.03 93 1014.5
20260506225544 16 22 3.2 6.4 0.03 0.05 0.03 93 1014.5
20260506225342 16 22 3.2 6.4 0.03 0.05 0.03 93 1014.4
20260506225137 16 45 3.2 3.2 0.03 0.05 0.03 93 1014.5
20260506224939 16 22 1.6 3.2 0.03 0.05 0.03 93 1014.4
20260506224738 16 0 1.6 3.2 0.03 0.05 0.03 93 1014.7
20260506224338 16 0 3.2 6.4 0.03 0.05 0.03 93 1014.8
20260506224138 16 338 1.6 3.2 0.03 0.05 0.03 93 1014.7
20260506223941 16 315 3.2 3.2 0.03 0.05 0.03 93 1014.6
20260506223738 16 292 3.2 6.4 0.03 0.05 0.03 93 1014.7
20260506223541 16 315 3.2 3.2 0.03 0.05 0.03 93 1014.7
20260506223338 16 315 3.2 6.4 0.05 0.05 0.03 93 1014.6
20260506222937 16 315 3.2 3.2 0.05 0.05 0.03 93 1014.6
20260506222738 16 292 3.2 6.4 0.05 0.05 0.03 93 1014.5
20260506222543 16 338 1.6 3.2 0.05 0.05 0.03 93 1014.7
20260506222338 16 338 3.2 6.4 0.05 0.05 0.03 93 1014.7
20260506222137 16 0 3.2 6.4 0.05 0.05 0.03 93 1014.5
20260506221938 16 22 3.2 6.4 0.03 0.03 0.00 93 1014.3
20260506221738 16 338 3.2 6.4 0.03 0.03 0.00 93 1014.6
20260506221544 16 292 3.2 6.4 0.03 0.03 0.00 92 1014.5
20260506221338 16 22 3.2 6.4 0.03 0.03 0.00 92 1014.6
20260506220940 16 0 1.6 6.4 0.03 0.03 0.00 92 1015.0
20260506220542 16 315 4.8 6.4 0.03 0.03 0.00 92 1014.8
20260506220338 16 315 4.8 9.7 0.03 0.03 0.00 92 1014.8
20260506220223 16 292 3.2 6.4 0.03 0.03 0.03 92 1014.8
20260506215739 16 315 4.8 9.7 0.03 0.03 0.03 92 1014.7
20260506215544 16 292 4.8 6.4 0.03 0.03 0.03 92 1014.8
20260506215338 16 292 3.2 6.4 0.03 0.03 0.03 92 1014.7
20260506215138 16 315 3.2 6.4 0.03 0.03 0.03 92 1014.7
20260506214937 16 315 3.2 6.4 0.03 0.03 0.03 92 1014.7
20260506214738 16 0 4.8 9.7 0.03 0.03 0.03 92 1014.7
20260506214544 16 315 6.4 11.3 0.03 0.03 0.03 92 1014.7
20260506214138 16 338 6.4 11.3 0.03 0.03 0.03 92 1014.7
20260506213940 16 270 3.2 6.4 0.03 0.03 0.03 92 1014.7